Flag for Bermuda Weather past 2 weeks in Hamilton, Bermuda

Now
84 °F

Scattered clouds.


Feels Like: 91 °F
Forecast: 80 / 86 °F
Wind: 7 mph from Southwest

Location: Bermuda

Current Time: Aug 2, 2015 at 5:30:33 PM

Latest Report: Aug 2, 2015 at 4:55 PM


Visibility: N/A

Pressure: 30.15 "Hg

Humidity: 70%

Dew point: 73 °F

Location of HamiltonLocation

Historic Weather in Hamilton — Graph

°F

Hamilton temperature yesterday

Maximum temperature yesterday: 86 °F (at 2:55 PM)
Minimum temperature yesterday: 79 °F (at 2:55 AM)
Average temperature yesterday: 82 °F

Past Weeks' High & Low Weather Summary

 TemperatureHumidityPressure
High86 °F (Jul 19, 1:55 PM)100% (Jul 25, 11:55 AM)30.18 "Hg (Jul 25, 11:55 AM)
Low73 °F (Jul 26, 5:55 AM)59% (Jul 22, 12:55 PM)29.86 "Hg (Jul 25, 3:55 AM)
Average81 °F80%30.05 "Hg
* Reported Jul 18 3:55 PM — Aug 2 3:55 PM, Hamilton, Weather by CustomWeather, © 2015

Note: Actual official high and low records may vary slightly from our data, if they occured in-between our weather recording intervals... More about our weather records

Advertising

Hamilton weather history for previous 24 hours

 ConditionsComfort  
Time TempWeatherWind HumidityBarometerVisibility
3:55 PM
Sun, Aug 2
84 °FBroken clouds.7 mph70%30.15 "HgN/A
2:55 PM79 °FBroken clouds.7 mph89%30.18 "HgN/A
1:55 PM84 °FThunderstorms. Scattered clouds.8 mph79%30.18 "HgN/A
12:55 PM86 °FScattered showers. Passing clouds.10 mph75%30.18 "HgN/A
11:55 AM86 °FScattered showers. Scattered clouds.10 mph70%30.18 "HgN/A
10:55 AM86 °FScattered clouds.8 mph75%30.15 "HgN/A
9:55 AM84 °FPassing clouds.8 mph74%30.15 "HgN/A
8:55 AM82 °FPassing clouds.9 mph79%30.15 "HgN/A
7:55 AM81 °FPassing clouds.10 mph84%30.12 "HgN/A
6:55 AM79 °FPassing clouds.10 mph89%30.12 "HgN/A
5:55 AM79 °FPassing clouds.9 mph89%30.12 "HgN/A
4:55 AM81 °FPassing clouds.8 mph84%30.12 "HgN/A
3:55 AM81 °FPassing clouds.9 mph84%30.12 "HgN/A
2:55 AM81 °FPassing clouds.10 mph84%30.12 "HgN/A
1:55 AM81 °FPassing clouds.13 mph84%30.12 "HgN/A
12:55 AM81 °FPassing clouds.12 mph84%30.12 "HgN/A
11:55 PM
Sat, Aug 1
81 °FPassing clouds.12 mph84%30.15 "HgN/A
10:55 PM81 °FPassing clouds.12 mph84%30.15 "HgN/A
9:55 PM81 °FPassing clouds.10 mph84%30.15 "HgN/A
8:55 PM81 °FPassing clouds.9 mph84%30.12 "HgN/A
7:55 PM82 °FPassing clouds.12 mph79%30.12 "HgN/A
6:55 PM84 °FPassing clouds.12 mph74%30.12 "HgN/A
5:55 PM84 °FScattered clouds.12 mph74%30.12 "HgN/A
Weather by CustomWeather, © 2015

See weather overviewHow to use our weather pages